SCP
0 0 0 0 0 0 0 0 0 0 0 0 0 0 0 0 0 0 0 0 0 0 0 0 0 0 0 0 0 0 0 0 0 0 0 0 0 0 0 0 0 0 0 0
0 0 0 0 0 0 0 0 0 0 0 0 0 0 0 0 0 0 0 0 0 0 0 0 0 0 0 0 0 0 0 0 0 0 0 0 0 0 0 0 0 0 0 0
0 0 0 0 0 0 0 0 0 0 0 0 0 0 0 0 0 0 0 0 0 0 0 0 0 0 0 0 0 0 0 0 0 0 0 0 0 0 0 0 0 0 0 0
0 0 0 0 0 0 0 0 0 0 0 0 0 0 0 0 0 0 0 0 0 0 0 0 0 0 0 0 0 0 0 0 0 0 0 0 0 0 0 0 0 0 0 0
0 0 0 0 0 0 0 0 0 0 0 0 0 0 0 0 0 0 0 0 0 0 0 0 0 0 0 0 0 0 0 0 0 0 0 0 0 0 0 0 0 0 0 0
0 0 0 0 0 0 0 0 0 0 0 0 0 0 0 0 0 0 0 0 0 0 0 0 0 0 0 0 0 0 0 0 0 0 0 0 0 0 0 0 0 0 0 0
0 0 0 0 0 0 0 0 0 0 0 0 0 0 0 0 0 0 0 0 0 0 0 0 0 0 0 0 0 0 0 0 0 0 0 0 0 0 0 0 0 0 0 0
0 0 0 0 0 0 0 0 0 0 0 0 0 0 0 0 0 0 0 0 0 0 0 0 0 0 0 0 0 0 0 0 0 0 0 0 0 0 0 0 0 0 0 0
0 0 0 0 0 0 0 0 0 0 0 0 0 0 0 0 0 0 0 0 0 0 0 0 0 0 0 0 0 0 0 0 0 0 0 0 0 0 0 0 0 0 0 0
0 0 0 0 0 0 0 0 0 0 0 0 0 0 0 0 0 0 0 0 0 0 0 0 0 0 0 0 0 0 0 0 0 0 0 0 0 0 0 0 0 0 0 0
0 0 0 0 0 0 0 0 0 0 0 0 0 0 0 0 0 0 0 0 0 0 0 0 0 0 0 0 0 0 0 0 0 0 0 0 0 0 0 0 0 0 0 0
0 0 0 0 0 0 0 0 0 0 0 0 0 0 0 0 0 0 0 0 0 0 0 0 0 0 0 0 0 0 0 0 0 0 0 0 0 0 0 0 0 0 0 0
0 0 0 0 0 0 0 0 0 0 0 0 0 0 0 0 0 0 0 0 0 0 0 0 0 0 0 0 0 0 0 0 0 0 0 0 0 0 0 0 0 0 0 0
0 0 0 0 0 0 0 0 0 0 0 0 0 0 0 0 0 0 0 0 0 0 0 0 0 0 0 0 0 0 0 0 0 0 0 0 0 0 0 0 0 0 0 0
0 0 0 0 0 0 0 0 0 0 0 0 0 0 0 0 0 0 0 0 0 0 0 0 0 0 0 0 0 0 0 0 0 0 0 0 0 0 0 0 0 0 0 0
0 0 0 0 0 0 0 0 0 0 0 0 0 0 0 0 0 0 0 0 0 0 0 0 0 0 0 0 0 0 0 0 0 0 0 0 0 0 0 0 0 0 0 0
0 0 0 0 0 0 0 0 0 0 0 0 0 0 0 0 0 0 0 0 0 0 0 0 0 0 0 0 0 0 0 0 0 0 0 0 0 0 0 0 0 0 0 0
0 0 0 0 0 0 0 0 0 0 0 0 0 0 0 0 0 0 0 0 0 0 0 0 0 0 0 0 0 0 0 0 0 0 0 0 0 0 0 0 0 0 0 0
0 0 0 0 0 0 0 0 0 0 0 0 0 0 0 0 0 0 0 0 0 0 0 0 0 0 0 0 0 0 0 0 0 0 0 0 0 0 0 0 0 0 0 0
0 0 0 0 0 0 0 0 0 0 0 0 0 0 0 0 0 0 0 0 0 0 0 0 0 0 0 0 0 0 0 0 0 0 0 0 0 0 0 0 0 0 0 0
0 0 0 0 0 0 0 0 0 0 0 0 0 0 0 -0 0 0 0 0 0 0 0 0 0 0 0 0 0 0 0 0 0 0 0 0 0 0 0 0 0 0 0 0
0 0 0 0 0 0 0 -0 -0 -0 0 0 0 0 -0 -0 0 0 0 0 0 0 0 0 0 0 0 0 0 0 0 0 0 0 0 0 0 0 0 0 0 0 0 0
0 0 0 0 0 0 0 -0 -0 -0 -0 0 0 0 0 0 0 0 0 0 0 0 0 0 0 0 0 0 0 0 0 0 0 0 0 0 0 0 0 0 0 0 0 0
0 0 0 0 0 0 0 -0 -0 -0 -0 0 0 0 0 0 0 0 0 0 0 0 0 0 0 0 0 0 0 0 0 0 0 0 0 0 0 0 0 0 0 0 0 0
0 0 0 0 0 0 0 0 -0 0 0 0 0 0 0 0 0 0 0 0 0 0 0 0 0 0 0 0 0 0 0 0 0 0 0 0 0 0 0 0 0 0 0 0
0 0 0 0 0 0 0 0 0 0 0 0 0 0 0 0 0 0 0 0 0 0 0 0 0 0 0 0 0 0 0 0 0 0 0 0 0 0 0 0 0 0 0 0
Wind_Speed
2 3 3 6 6 4 3 3 5 6 3 3 8 11 11 7 5 7 7 6 6 7 5 2 2 3 2 2 2 3 2 2 2 2 2 1 1 1 0 1 1 1 1 1
3 3 5 3 3 2 3 4 5 5 3 3 7 11 10 8 8 7 8 8 7 5 2 2 2 3 3 3 3 3 3 3 3 2 2 2 2 1 1 1 1 1 1 1
5 3 2 3 2 3 4 6 5 5 5 3 4 9 6 6 5 6 6 7 6 7 6 5 3 4 3 3 4 3 3 3 2 2 1 1 1 0 0 1 1 1 1 1
3 3 1 2 3 4 6 4 4 3 2 4 1 7 8 5 5 7 7 6 6 6 6 5 5 4 4 5 4 3 3 3 2 2 3 3 2 2 2 2 2 1 1 1
4 2 2 4 4 4 4 1 2 2 3 4 2 4 10 2 6 9 7 6 6 6 6 5 5 5 4 4 3 3 3 3 3 3 3 3 3 2 1 1 2 2 1 1
3 2 2 3 1 2 2 2 2 2 2 5 6 6 10 5 8 6 6 5 5 5 4 4 4 3 2 2 2 3 3 3 3 3 3 4 4 3 2 2 2 2 1 1
4 2 1 1 1 1 2 3 3 3 2 7 3 6 11 7 6 6 6 6 4 4 4 4 3 3 3 3 3 3 3 3 3 3 4 4 4 5 5 4 4 3 2 2
1 5 2 1 3 4 3 5 6 5 5 5 2 8 9 5 4 4 4 3 2 3 4 4 5 5 4 4 3 3 3 3 3 4 4 3 4 3 3 4 4 4 3 3
3 5 3 2 2 4 3 4 3 3 1 3 7 8 9 3 3 3 2 2 3 4 4 4 4 5 5 4 4 4 4 3 3 4 3 3 4 4 4 4 3 3 3 2
4 4 4 3 1 1 2 5 4 3 2 5 6 5 6 5 5 4 4 4 4 3 4 4 4 4 4 4 3 3 3 3 3 2 3 3 3 4 4 4 4 4 3 2
2 2 4 2 3 4 2 2 3 3 3 3 5 8 5 5 4 5 6 5 4 4 5 4 4 3 3 2 2 2 2 1 1 2 2 2 2 2 3 3 4 3 3 3
2 3 3 6 4 2 3 4 5 4 5 4 4 10 4 3 3 3 4 4 4 4 4 3 3 2 2 2 2 2 1 1 1 1 1 1 2 2 2 3 3 3 3 3
3 3 1 5 3 2 1 3 3 2 2 4 5 10 3 4 5 5 4 4 3 3 2 2 2 2 3 3 2 2 2 1 1 0 1 1 1 2 2 2 2 3 3 3
2 3 6 7 5 3 4 5 4 5 4 6 10 12 11 10 8 7 5 4 3 2 2 2 2 2 2 3 2 2 2 1 0 0 1 1 1 1 1 1 2 2 3 2
3 3 5 6 6 4 6 8 8 10 10 10 11 11 14 11 8 7 5 3 2 2 2 2 2 2 2 2 2 2 1 1 1 0 0 1 0 0 1 1 1 2 2 2
2 2 2 4 5 5 7 10 10 11 10 11 12 14 12 8 5 5 4 3 4 4 3 2 2 2 2 2 2 1 1 1 1 1 1 0 1 1 1 1 1 2 2 1
3 3 2 4 3 2 7 9 9 6 6 7 11 12 7 7 6 6 5 5 5 4 3 3 2 2 3 3 2 2 1 1 1 1 0 0 1 1 1 1 1 1 2 2
5 4 2 2 1 6 8 2 5 6 6 7 7 7 7 7 7 5 5 5 5 4 3 3 2 2 2 1 1 1 1 1 1 1 1 1 1 1 1 1 1 1 1 1
4 5 2 2 3 8 7 3 2 4 6 4 7 9 7 5 5 5 3 3 5 4 3 3 2 2 1 1 1 2 1 1 1 1 1 1 1 1 1 1 0 0 1 1
1 2 3 3 3 7 7 3 1 2 6 4 4 6 5 2 3 6 3 2 2 2 2 1 1 0 0 1 1 2 1 1 2 2 1 1 1 1 1 1 1 0 1 1
2 1 3 4 5 9 7 2 2 2 7 5 4 5 4 4 6 5 3 2 1 1 1 1 1 0 1 1 2 2 2 2 2 1 1 1 1 1 2 1 1 1 1 1
6 5 5 4 4 9 3 3 5 7 5 4 5 5 5 5 5 4 3 2 1 1 1 0 1 0 1 1 2 2 2 1 1 1 1 1 1 1 1 2 1 1 1 1
6 7 6 8 9 5 3 6 6 4 5 5 5 6 5 4 4 4 3 2 1 1 1 0 1 0 1 0 1 2 1 1 1 1 1 1 1 1 2 2 2 1 1 1
4 1 3 5 9 7 7 6 6 6 6 6 6 6 4 4 4 3 3 2 1 1 1 1 1 1 1 1 0 1 1 1 1 1 1 1 2 1 1 1 1 1 1 1
5 4 3 7 8 6 6 6 7 7 6 6 5 4 4 3 4 3 2 2 2 1 1 1 1 1 1 1 0 0 1 1 1 1 1 1 1 1 1 0 1 1 2 2
4 6 6 7 6 5 7 6 5 5 6 5 5 4 3 3 3 3 2 2 1 1 1 0 1 1 1 1 1 1 1 1 1 1 1 1 1 1 1 1 1 1 1 2
Wind_Direction
43 78 207 217 206 208 205 219 249 260 271 248 251 263 268 261 242 244 248 241 233 236 239 211 188 180 169 171 173 180 174 183 167 166 172 176 199 217 205 196 189 181 170 163
49 244 236 212 197 196 212 245 261 282 287 251 267 269 263 245 232 227 232 235 231 231 229 205 186 177 178 184 187 187 184 185 191 192 188 182 186 204 211 217 221 208 186 178
195 240 206 180 208 212 232 222 237 265 314 290 300 288 259 249 236 240 234 229 225 214 210 210 200 194 189 194 196 194 196 189 193 186 156 129 111 99 207 230 244 250 226 196
239 258 214 209 225 199 246 223 224 253 288 284 267 286 274 252 261 251 246 238 232 223 211 206 202 202 204 208 203 191 191 191 187 170 165 171 184 206 225 222 222 240 223 203
248 229 209 223 231 196 226 206 208 236 222 279 242 245 279 269 258 256 249 242 236 222 211 208 205 205 211 209 198 194 187 189 182 177 180 181 193 209 213 213 211 224 224 212
258 257 214 209 252 190 171 64 52 59 97 261 224 211 273 236 232 254 253 251 240 223 213 209 206 197 206 200 188 185 188 193 186 188 195 197 197 197 195 216 218 227 223 221
320 295 263 159 96 6 105 95 17 338 303 252 206 220 252 247 237 234 246 252 245 219 204 202 200 197 201 194 191 190 191 202 198 198 207 211 206 199 204 213 217 220 218 219
273 285 263 230 188 194 202 158 169 215 239 275 250 237 254 260 270 260 251 245 237 220 210 208 206 203 203 202 196 191 198 209 205 209 219 219 212 210 216 217 216 219 219 218
195 260 306 304 283 167 170 196 169 149 256 269 259 276 297 273 298 298 276 258 240 229 226 218 211 208 205 202 201 198 200 207 210 217 221 220 216 213 215 217 215 223 224 218
169 253 291 312 355 339 168 150 123 156 206 264 279 268 258 277 275 284 275 259 255 240 234 228 215 212 209 205 202 196 198 205 216 218 220 225 221 214 210 205 207 213 216 209
149 194 299 325 212 209 148 158 152 164 190 204 272 270 234 240 251 257 259 254 247 240 235 230 224 213 204 197 187 191 198 196 211 215 225 226 221 209 202 195 203 210 206 197
149 145 253 258 261 274 199 194 159 177 234 211 237 269 277 254 281 284 283 280 270 248 241 232 216 199 191 198 195 196 199 207 220 209 204 207 193 190 192 196 203 196 197 202
153 137 332 330 332 353 250 227 193 169 175 200 220 264 305 328 318 313 301 296 294 273 255 241 218 207 203 204 206 209 212 216 237 195 171 168 183 189 196 204 202 190 190 196
144 165 194 220 238 216 251 248 205 177 212 235 235 262 289 300 304 305 300 290 288 290 260 238 235 229 218 211 206 208 223 218 201 145 156 170 200 204 188 184 182 182 176 177
135 212 229 250 262 251 248 251 223 214 217 227 249 256 272 283 287 288 282 277 284 296 297 256 237 235 229 222 220 212 223 220 159 131 192 219 196 154 121 119 144 156 160 171
151 207 225 268 251 252 267 262 241 240 238 241 258 268 272 281 284 287 275 259 259 262 263 269 252 230 229 224 225 212 224 222 154 156 200 260 104 109 112 111 119 131 136 136
178 163 183 256 283 314 271 247 225 222 218 209 239 258 286 295 283 271 258 246 250 252 250 245 249 233 231 226 216 211 218 190 155 162 162 149 130 123 110 102 105 119 122 122
174 167 191 247 36 239 245 222 215 229 243 229 252 279 283 278 287 276 249 234 241 240 241 243 242 257 250 225 209 189 177 168 159 164 177 166 149 139 108 94 102 112 111 124
182 172 182 187 236 273 289 276 208 215 266 244 252 275 294 308 317 291 261 227 230 232 235 237 229 236 247 229 191 152 169 162 151 185 207 205 176 157 143 149 187 160 119 134
100 156 175 179 212 249 260 283 272 135 282 273 249 266 283 337 301 285 302 284 258 240 224 219 204 180 217 251 165 146 170 174 193 213 212 201 180 176 184 191 200 203 160 165
160 186 202 207 229 259 265 290 95 160 260 292 271 269 254 233 245 276 295 294 267 240 226 183 172 192 233 223 146 155 177 210 226 207 170 158 168 190 192 181 181 166 141 118
181 183 199 181 216 253 246 134 191 235 275 284 278 271 259 261 276 282 277 269 271 279 266 183 149 227 286 192 152 169 217 239 193 154 150 162 177 193 169 164 169 151 145 141
205 198 194 198 220 248 213 224 248 261 272 276 274 277 265 265 272 279 273 259 265 246 256 242 164 194 313 285 162 184 238 197 135 134 169 179 171 183 169 162 162 155 159 177
253 223 204 253 264 267 267 270 277 270 264 272 273 276 266 259 261 271 267 263 264 256 237 207 159 182 293 310 55 194 199 169 144 154 159 145 147 149 136 156 164 169 193 202
227 185 219 254 275 297 282 268 275 282 284 285 289 277 257 240 253 252 248 253 243 247 262 197 188 217 263 277 280 202 176 152 142 150 148 135 132 136 124 106 201 205 220 219
198 191 201 240 251 248 271 283 282 282 285 283 287 295 282 229 238 243 246 251 236 227 233 205 208 220 258 241 249 251 179 161 151 162 161 158 153 144 137 121 3 329 267 275